#timestamp,LO_Frequency,Hit,StdDev 
1643158815.5,286046997.4,N
1643158835.3,286046994.9,N
1643158855.1,286046996.8,N
1643158875.9,286046997.5,N
1643158895.7,286046996.5,N
1643158915.5,286046997.1,N
1643158935.4,286046996.7,N
1643158955.2,286046997.1,N
1643158975.1,286046999.6,N
1643158976.0,286046999.6,N
1643158995.8,286046998.4,N
1643159015.6,286046998.3,N
1643159035.3,286046998.9,N
1643159055.1,286046998.9,N
1643159056.0,286046998.9,N
1643159075.8,286046998.8,N
1643159095.7,286046999.0,N
1643159115.5,286046999.6,N
1643159135.3,286046999.5,N
1643159155.2,286046997.0,N
1643159175.0,286046996.5,N
1643159175.9,286046996.5,N
1643159195.8,286046999.1,N
1643159215.6,286046996.6,N
1643159235.4,286046997.4,N
1643159255.3,286046999.6,N
1643159275.1,286046997.0,N
1643159295.8,286046996.6,N
1643159315.7,286046997.7,N
1643159335.5,286046997.3,N
1643159355.4,286046996.7,N
1643159375.2,286046999.6,N
1643159395.0,286046996.7,N
1643159395.9,286046996.7,N
1643159415.8,286046996.7,N
1643159435.6,286046999.1,N
1643159455.5,286046996.6,N
1643159475.3,286046997.0,N
1643159495.1,286046996.7,N
1643159515.9,286046997.8,N
1643159535.7,286046997.5,N
1643159555.5,286046997.0,N
1643159575.4,286046996.7,N
1643159595.2,286046996.5,Y
1643159615.1,286047001.1,P
1643159616.0,286047001.1,N
1643159635.8,286047000.7,N
1643159655.6,286046999.3,N
1643159675.5,286046998.7,N
1643159695.3,286046998.1,N
1643159715.1,286046999.3,N
1643159735.9,286047000.6,N
1643159755.7,286046999.1,N
1643159775.6,286046999.1,N
1643159795.4,286046996.5,Y
1643159815.2,286046997.2,P
1643159835.1,286046999.3,N
1643159836.0,286046999.3,N
1643159855.8,286046996.5,Y
1643159875.7,286046998.5,P
1643159895.5,286046999.1,P
1643159915.3,286046999.4,N
1643159935.2,286047001.1,Y
1643159955.0,286047000.9,P
1643159955.9,286047000.9,N
1643159975.8,286047001.9,N
1643159995.6,286047001.9,N
1643160015.4,286047004.1,Y
1643160035.3,286047002.0,P
1643160055.1,286047002.1,P
1643160075.8,286047002.0,P
1643160095.7,286047004.1,Y
1643160115.5,286047000.0,P
1643160135.4,286047000.4,N
1643160155.2,286046998.3,N
1643160175.0,286047000.8,N
1643160175.9,286047000.8,N
1643160195.8,286046998.9,N
1643160215.6,286046998.4,N
1643160235.5,286046998.2,N
1643160255.3,286046998.2,N
1643160275.1,286046999.4,N
1643160295.9,286046998.3,N
1643160315.7,286046998.7,N
1643160335.5,286046998.1,N
1643160355.4,286047000.8,N
1643160375.2,286047000.8,N
1643160395.1,286047000.4,N
1643160396.0,286047000.4,N
1643160415.8,286047000.3,N
1643160435.6,286046998.5,N
1643160455.5,286046999.9,N
1643160475.3,286047002.3,N
1643160495.1,286047000.0,N
1643160515.9,286047000.4,N
1643160535.7,286047000.9,N
1643160555.6,286047000.6,N
1643160575.4,286047000.9,N
1643160595.2,286047000.4,N
1643160615.1,286046998.5,N
1643160616.0,286046998.5,N
1643160635.8,286047001.2,N
1643160655.6,286047000.9,N
1643160675.5,286047000.7,N
1643160695.3,286047000.0,N
1643160715.2,286046998.6,N
1643160735.9,286047001.1,N
1643160755.7,286046998.1,N
1643160775.6,286046998.3,N
1643160795.4,286046998.7,N
1643160815.2,286046998.9,N
1643160835.1,286046998.8,N
1643160836.0,286046998.8,N
1643160855.8,286046999.0,N
1643160875.7,286046998.7,N
1643160895.5,286046998.3,N
1643160915.3,286046998.5,N
1643160935.2,286047000.8,N
1643160955.0,286046998.7,N
1643160955.9,286046998.7,N
1643160975.8,286047000.8,N
1643160995.6,286046998.3,N
1643161015.4,286046998.6,N
1643161035.3,286046998.2,N
1643161055.1,286047000.3,N
1643161075.8,286046999.7,N
1643161095.7,286046999.7,N
1643161115.5,286047000.3,N
1643161135.4,286047000.0,N
1643161155.2,286046999.8,N
1643161175.0,286046999.8,N
1643161175.9,286046999.8,N
1643161195.8,286047000.7,N
1643161215.6,286047000.1,N
1643161235.4,286046999.7,N
1643161255.3,286047001.6,N
1643161275.1,286047001.9,N
1643161295.9,286047002.5,N
1643161315.7,286046999.9,N
1643161335.5,286047001.1,N
1643161355.4,286047000.4,N
1643161375.2,286047002.8,N
1643161395.0,286047002.1,N
1643161395.9,286047002.1,N
1643161415.8,286047004.0,Y
1643161435.6,286047004.4,P
1643161455.5,286047001.5,N
1643161475.3,286047000.1,N
1643161495.1,286046999.7,N
1643161515.9,286047001.0,N
1643161535.7,286046999.0,N
1643161555.5,286046998.3,N
1643161575.4,286047000.9,N
1643161595.2,286047000.1,N
1643161615.1,286047002.7,N
1643161616.0,286047002.7,N
1643161635.8,286047004.4,N
1643161655.6,286047004.4,N
1643161675.5,286046999.8,N
1643161695.3,286047004.2,N
1643161715.2,286047001.9,N
1643161735.9,286047002.5,N
1643161755.7,286047002.4,N
1643161775.6,286047001.6,N
1643161795.4,286047003.8,N
1643161815.2,286047002.5,N
1643161835.1,286047001.4,N
1643161836.0,286047001.4,N
1643161855.8,286047004.0,N
1643161875.7,286047001.7,N
1643161895.5,286047001.4,N
1643161915.3,286046999.7,N
1643161935.2,286047002.3,N
1643161955.0,286047002.2,N
1643161955.9,286047002.2,N
1643161975.8,286047002.4,N
1643161995.6,286047002.4,N
1643162015.4,286046999.8,N
1643162035.3,286047002.8,N
1643162055.1,286046999.8,N
1643162075.8,286047000.1,N
1643162095.7,286047000.7,N
1643162115.5,286047000.3,N
1643162135.4,286047000.1,N
1643162155.2,286046999.8,N
1643162175.0,286047002.4,N
1643162175.9,286047002.4,N
1643162195.8,286047000.3,N
1643162215.6,286047000.4,N
1643162235.4,286046999.9,N
1643162255.3,286046999.8,N
1643162275.1,286047000.5,N
1643162295.9,286047000.4,N
1643162315.7,286047000.6,N
1643162335.5,286047000.7,N
1643162355.4,286047000.7,N
1643162375.2,286047000.4,N
1643162395.0,286047000.2,N
1643162396.0,286047000.2,N
